Terminal Aerodrome Forecast
Issued by NWS Jackson, KY

Home | Current Version | Previous Version | Text Only | Print | Product List | Glossary On
Versions: 1 2 3 4 5 6 7 8 9 10 11 12 13 14 15 16 17 18 19
000
FTUS43 KJKL 251120
TAFLOZ
TAF
KLOZ 251120Z 2512/2612 06004KT 5SM BR BKN005
     FM251300 02006KT P6SM FEW045 SCT150
     FM260200 VRB03KT P6SM FEW200=

USA.gov is the U.S. government's official web portal to all federal, state and local government web resources and services.